Weather History for Volkel, Netherlands

Change the Weather History Date:

Tuesday, November 6, 2012

  Actual Average Record
Temperature  
Mean Temperature 42 °F -  
Max Temperature 51 °F 46 °F 59 °F (2005)
Min Temperature 32 °F 34 °F 32 °F (1998)
Degree Days  
Heating Degree Days 24    
Moisture  
Dew Point 37 °F    
Average Humidity 92    
Maximum Humidity 100    
Minimum Humidity 62    
Precipitation  
Precipitation 0.00 in - - ()
Sea Level Pressure  
Sea Level Pressure 29.99 in    
Wind  
Wind Speed 8 mph ()    
Max Wind Speed 20 mph    
Max Gust Speed 29 mph    
Visibility 5.0 miles    
Events Rain    
Averages and records for this station are not official NWS values.
T = Trace of Precipitation, MM = Missing Value Source: Averaged Metar Reports

Daily Weather History Graph

Daily Weather History Graph

Search for Another Location

Airport:

Trip Planner

Search our weather history database for the weather conditions in past years. The results will help you decide how hot, cold, wet, or windy it might be!

Date:

Astronomy

Nov. 06, 2012 Rise Set
Actual Time 7:40 AM CET 5:00 PM CET
Civil Twilight 7:04 AM CET 5:36 PM CET
Nautical Twilight 6:24 AM CET 6:16 PM CET
Astronomical Twilight 5:45 AM CET 6:55 PM CET
Moon 11:29 PM CET (11/6) 1:20 PM CET (11/6)
Length of Visible Light 10h 31m
Length of Day
9h 19m
Waning Gibbous, 56% of the Moon is Illuminated
Nov 6
Waning Gibbous
Nov 7
Last Quarter
Nov 13
New
Nov 20
First Quarter
Nov 28
Full

Hourly Weather History & Observations

Time (CET) Temp. Windchill Dew Point Humidity Pressure Visibility Wind Dir Wind Speed Gust Speed Precip Events Conditions
12:25 AM 35.6 °F 30.7 °F 33.8 °F 93% 29.83 in 6.2 mi WSW 5.8 mph - N/A   Mostly Cloudy
12:55 AM 35.6 °F 30.7 °F 35.6 °F 100% 29.83 in 6.2 mi WSW 5.8 mph - N/A   Partly Cloudy
1:25 AM 37.4 °F 32.1 °F 37.4 °F 100% 29.86 in 6.2 mi West 6.9 mph - N/A   Unknown
1:55 AM 37.4 °F 32.8 °F 37.4 °F 100% 29.86 in 6.2 mi West 5.8 mph - N/A   Unknown
2:25 AM 35.6 °F 30.7 °F 35.6 °F 100% 29.86 in 6.2 mi WSW 5.8 mph - N/A   Unknown
2:55 AM 33.8 °F 28.6 °F 33.8 °F 100% 29.89 in 6.2 mi WSW 5.8 mph - N/A   Unknown
3:25 AM 35.6 °F 30.7 °F 33.8 °F 93% 29.89 in 6.2 mi WSW 5.8 mph - N/A   Unknown
3:45 AM 33.8 °F 29.6 °F 33.8 °F 100% 29.89 in 4.3 mi West 4.6 mph - N/A   Partly Cloudy
3:49 AM 35.6 °F 31.7 °F 35.6 °F 100% 29.89 in 5.6 mi West 4.6 mph - N/A   Scattered Clouds
3:55 AM 35.6 °F 31.7 °F 35.6 °F 100% 29.89 in 6.2 mi West 4.6 mph - N/A   Mostly Cloudy
4:08 AM 35.6 °F 31.7 °F 35.6 °F 100% 29.89 in 6.2 mi West 4.6 mph - N/A   Unknown
4:16 AM 33.8 °F 29.6 °F 33.8 °F 100% 29.89 in 4.3 mi West 4.6 mph - N/A   Mist
4:20 AM 33.8 °F 29.6 °F 33.8 °F 100% 29.92 in - West 4.6 mph - N/A   Mist
4:25 AM 33.8 °F 28.6 °F 33.8 °F 100% 29.92 in 3.1 mi West 5.8 mph - N/A   Mist
4:31 AM 33.8 °F 28.6 °F 33.8 °F 100% 29.92 in 5.0 mi West 5.8 mph - N/A   Mist
4:35 AM 33.8 °F 28.6 °F 33.8 °F 100% 29.92 in 4.3 mi West 5.8 mph - N/A   Mist
4:39 AM 33.8 °F 28.6 °F 32.0 °F 93% 29.92 in 5.0 mi West 5.8 mph - N/A   Mist
4:43 AM 33.8 °F 27.7 °F 33.8 °F 100% 29.92 in 4.3 mi West 6.9 mph - N/A   Mist
4:44 AM 35.6 °F 29.9 °F 35.6 °F 100% 29.92 in 5.0 mi West 6.9 mph - N/A   Mist
4:55 AM 35.6 °F 29.9 °F 33.8 °F 93% 29.92 in 5.6 mi West 6.9 mph - N/A   Mist
5:03 AM 35.6 °F 29.9 °F 33.8 °F 93% 29.92 in 4.3 mi West 6.9 mph - N/A   Mist
5:06 AM 33.8 °F 28.6 °F 33.8 °F 100% 29.92 in 5.0 mi West 5.8 mph - N/A   Mist
5:11 AM 35.6 °F 29.9 °F 35.6 °F 100% 29.92 in 4.3 mi West 6.9 mph - N/A   Mist
5:25 AM 35.6 °F 30.7 °F 35.6 °F 100% 29.92 in 5.6 mi West 5.8 mph - N/A   Mist
5:34 AM 35.6 °F 30.7 °F 35.6 °F 100% 29.95 in 4.3 mi West 5.8 mph - N/A   Mist
5:38 AM 35.6 °F 30.7 °F 33.8 °F 93% 29.95 in 5.0 mi West 5.8 mph - N/A   Mist
5:42 AM 33.8 °F 28.6 °F 33.8 °F 100% 29.95 in 2.8 mi West 5.8 mph - N/A   Mist
5:43 AM 33.8 °F 29.6 °F 32.0 °F 93% 29.95 in 3.1 mi West 4.6 mph - N/A   Mist
5:55 AM 33.8 °F 29.6 °F 33.8 °F 100% 29.95 in 3.7 mi West 4.6 mph - N/A   Mist
5:59 AM 35.6 °F 32.8 °F 33.8 °F 93% 29.95 in - West 3.5 mph - N/A   Mist
6:03 AM 35.6 °F 32.8 °F 33.8 °F 93% 29.95 in 1.7 mi West 3.5 mph - N/A   Mist
6:06 AM 33.8 °F 30.8 °F 33.8 °F 100% 29.95 in 2.8 mi West 3.5 mph - N/A   Mist
6:11 AM 33.8 °F 29.6 °F 33.8 °F 100% 29.95 in 3.1 mi West 4.6 mph - N/A   Mist
6:17 AM 33.8 °F 29.6 °F 32.0 °F 93% 29.95 in - West 4.6 mph - N/A   Mist
6:25 AM 32.0 °F 26.4 °F 32.0 °F 100% 29.95 in 4.3 mi West 5.8 mph - N/A   Mist
6:32 AM 33.8 °F 28.6 °F 32.0 °F 93% 29.95 in 5.0 mi West 5.8 mph - N/A   Mist
6:36 AM 33.8 °F 28.6 °F 32.0 °F 93% 29.95 in 4.3 mi West 5.8 mph - N/A   Mist
6:43 AM 33.8 °F 28.6 °F 33.8 °F 100% 29.95 in 5.0 mi West 5.8 mph - N/A   Mist
6:45 AM 33.8 °F 28.6 °F 32.0 °F 93% 29.95 in 4.3 mi West 5.8 mph - N/A   Mist
6:51 AM 33.8 °F 28.6 °F 33.8 °F 100% 29.95 in 5.6 mi West 5.8 mph - N/A   Mist
6:55 AM 32.0 °F 27.5 °F 32.0 °F 100% 29.95 in 3.1 mi West 4.6 mph - N/A   Mist
7:02 AM 33.8 °F 28.6 °F 33.8 °F 100% 29.98 in - West 5.8 mph - N/A   Mist
7:06 AM 33.8 °F 28.6 °F 32.0 °F 93% 29.98 in 0.7 mi West 5.8 mph - N/A   Mist
7:10 AM 32.0 °F 26.4 °F 32.0 °F 100% 29.98 in 1.5 mi WSW 5.8 mph - N/A   Mist
7:25 AM 33.8 °F 28.6 °F 33.8 °F 100% 29.98 in 1.5 mi SW 5.8 mph - N/A   Mist
7:36 AM 33.8 °F 28.6 °F 32.0 °F 93% 29.98 in 0.7 mi WSW 5.8 mph - N/A   Mist
7:40 AM 33.8 °F 28.6 °F 32.0 °F 93% 29.98 in 1.3 mi WSW 5.8 mph - N/A   Mist
7:44 AM 32.0 °F 26.4 °F 32.0 °F 100% 29.98 in 0.7 mi WSW 5.8 mph - N/A   Mist
7:45 AM 32.0 °F 26.4 °F 32.0 °F 100% 29.98 in 1.5 mi WSW 5.8 mph - N/A   Mist
7:55 AM 33.8 °F 28.6 °F 33.8 °F 100% 29.98 in 2.5 mi WSW 5.8 mph - N/A   Mist
7:58 AM 33.8 °F 28.6 °F 32.0 °F 93% 29.98 in 3.1 mi WSW 5.8 mph - N/A   Mist
8:08 AM 33.8 °F 27.7 °F 33.8 °F 100% 29.98 in - WSW 6.9 mph - N/A   Mist
8:13 AM 33.8 °F 27.7 °F 33.8 °F 100% 30.01 in 3.1 mi WSW 6.9 mph - N/A   Mist
8:17 AM 33.8 °F 28.6 °F 33.8 °F 100% 30.01 in 5.0 mi WSW 5.8 mph - N/A   Mist
8:18 AM 33.8 °F 28.6 °F 33.8 °F 100% 30.01 in 3.7 mi WSW 5.8 mph - N/A   Mist
8:25 AM 33.8 °F 28.6 °F 33.8 °F 100% 30.01 in 3.7 mi SW 5.8 mph - N/A   Mist
8:29 AM 35.6 °F 30.7 °F 33.8 °F 93% 30.01 in 6.2 mi WSW 5.8 mph - N/A   Unknown
8:36 AM 35.6 °F 29.9 °F 35.6 °F 100% 30.01 in 4.3 mi WSW 6.9 mph - N/A   Mist
8:55 AM 35.6 °F 29.9 °F 35.6 °F 100% 30.01 in 5.6 mi WSW 6.9 mph - N/A   Mist
9:25 AM 37.4 °F 32.1 °F 37.4 °F 100% 30.01 in 6.2 mi WSW 6.9 mph - N/A   Unknown
9:55 AM 41.0 °F 37.1 °F 41.0 °F 100% 30.04 in 6.2 mi SW 5.8 mph - N/A   Partly Cloudy
10:25 AM 44.6 °F 40.7 °F 41.0 °F 87% 30.04 in 6.2 mi SW 6.9 mph - N/A   Unknown
10:55 AM 46.4 °F 42.9 °F 41.0 °F 81% 30.04 in 6.2 mi WSW 6.9 mph - N/A   Unknown
11:25 AM 48.2 °F - 41.0 °F 76% 30.04 in 6.2 mi WSW 8.1 mph - N/A   Partly Cloudy
11:55 AM 48.2 °F - 41.0 °F 76% 30.04 in 6.2 mi WSW 9.2 mph - N/A   Scattered Clouds
12:25 PM 50.0 °F - 41.0 °F 71% 30.04 in 6.2 mi WSW 9.2 mph - N/A   Mostly Cloudy
12:55 PM 50.0 °F - 41.0 °F 71% 30.04 in 6.2 mi West 13.8 mph - N/A   Scattered Clouds
1:25 PM 50.0 °F - 39.2 °F 66% 30.04 in 6.2 mi West 12.7 mph - N/A   Mostly Cloudy
1:55 PM 51.8 °F - 39.2 °F 62% 30.04 in 6.2 mi West 12.7 mph - N/A   Partly Cloudy
2:25 PM 50.0 °F - 39.2 °F 66% 30.04 in 6.2 mi West 12.7 mph - N/A   Scattered Clouds
2:55 PM 50.0 °F - 39.2 °F 66% 30.04 in 6.2 mi West 12.7 mph - N/A   Scattered Clouds
3:25 PM 50.0 °F - 39.2 °F 66% 30.04 in 6.2 mi West 11.5 mph - N/A   Scattered Clouds
3:55 PM 48.2 °F - 37.4 °F 66% 30.04 in 6.2 mi WSW 12.7 mph - N/A   Partly Cloudy
4:25 PM 48.2 °F - 37.4 °F 66% 30.04 in 6.2 mi West 15.0 mph - N/A   Overcast
4:28 PM 48.2 °F - 37.4 °F 66% 30.04 in 6.2 mi WSW 15.0 mph - N/A   Mostly Cloudy
4:55 PM 48.2 °F - 37.4 °F 66% 30.04 in 6.2 mi WSW 17.3 mph 28.8 mph N/A   Mostly Cloudy
5:25 PM 48.2 °F - 39.2 °F 71% 30.04 in 6.2 mi WSW 15.0 mph - N/A   Mostly Cloudy
5:55 PM 46.4 °F 40.4 °F 39.2 °F 76% 30.04 in 6.2 mi WSW 13.8 mph - N/A   Mostly Cloudy
6:25 PM 46.4 °F 39.8 °F 39.2 °F 76% 30.04 in 6.2 mi WSW 16.1 mph - N/A   Light Drizzle
6:31 PM 46.4 °F 39.2 °F 41.0 °F 81% 30.04 in 6.2 mi WSW 18.4 mph - N/A   Light Drizzle
6:55 PM 46.4 °F 39.2 °F 39.2 °F 76% 30.04 in 6.2 mi WSW 18.4 mph - N/A   Mostly Cloudy
7:25 PM 46.4 °F 40.1 °F 41.0 °F 81% 30.04 in 6.2 mi WSW 15.0 mph - N/A Rain Light Rain
7:26 PM 46.4 °F 40.1 °F 41.0 °F 81% 30.04 in 6.2 mi WSW 15.0 mph - N/A Rain Light Rain
7:55 PM 46.4 °F 40.4 °F 41.0 °F 81% 30.04 in 6.2 mi WSW 13.8 mph - N/A   Drizzle
7:56 PM 46.4 °F 40.1 °F 41.0 °F 81% 30.04 in 6.2 mi WSW 15.0 mph - N/A Rain Light Rain
8:04 PM 44.6 °F 38.1 °F 41.0 °F 87% 30.04 in 6.2 mi WSW 13.8 mph - N/A Rain Light Rain
8:10 PM 44.6 °F 37.8 °F 41.0 °F 87% 30.04 in 6.2 mi WSW 15.0 mph - N/A   Drizzle
8:25 PM 44.6 °F 37.2 °F 42.8 °F 93% 30.04 in 6.2 mi WSW 17.3 mph - N/A Rain Drizzle
8:55 PM 44.6 °F 36.9 °F 42.8 °F 93% 30.04 in 6.2 mi WSW 18.4 mph - N/A   Drizzle
9:08 PM 44.6 °F 36.6 °F 42.8 °F 93% 30.04 in 6.2 mi WSW 19.6 mph - N/A   Light Drizzle
9:10 PM 44.6 °F 36.6 °F 42.8 °F 93% 30.04 in 6.2 mi WSW 19.6 mph - N/A   Light Drizzle
9:11 PM 44.6 °F 36.9 °F 42.8 °F 93% 30.04 in 6.2 mi WSW 18.4 mph - N/A   Light Drizzle
9:12 PM 44.6 °F 36.9 °F 42.8 °F 93% 30.04 in 6.2 mi WSW 18.4 mph - N/A   Light Drizzle
9:18 PM 44.6 °F 36.9 °F 42.8 °F 93% 30.04 in 6.2 mi WSW 18.4 mph - N/A Rain Light Drizzle
9:22 PM 44.6 °F 37.2 °F 42.8 °F 93% 30.04 in 6.2 mi WSW 17.3 mph - N/A Rain Light Rain
9:25 PM 44.6 °F 37.2 °F 42.8 °F 93% 30.04 in 6.2 mi WSW 17.3 mph - N/A Rain Light Rain
9:29 PM 44.6 °F 37.2 °F 42.8 °F 93% 30.04 in 6.2 mi WSW 17.3 mph - N/A   Light Drizzle
9:32 PM 44.6 °F 37.2 °F 42.8 °F 93% 30.04 in 6.2 mi WSW 17.3 mph - N/A   Light Drizzle
9:34 PM 44.6 °F 37.2 °F 42.8 °F 93% 30.04 in 5.6 mi WSW 17.3 mph - N/A   Light Drizzle
9:41 PM 44.6 °F 37.2 °F 42.8 °F 93% 30.04 in 5.6 mi WSW 17.3 mph - N/A   Light Drizzle
9:55 PM 44.6 °F 36.9 °F 42.8 °F 93% 30.04 in 6.2 mi WSW 18.4 mph - N/A   Light Drizzle
10:25 PM 44.6 °F 37.4 °F 42.8 °F 93% 30.04 in 6.2 mi WSW 16.1 mph - N/A   Light Drizzle
10:55 PM 44.6 °F 37.4 °F 42.8 °F 93% 30.04 in 6.2 mi WSW 16.1 mph - N/A   Overcast
11:01 PM 44.6 °F 37.4 °F 42.8 °F 93% 30.04 in 4.3 mi WSW 16.1 mph - N/A   Overcast
11:19 PM 44.6 °F 37.4 °F 44.6 °F 100% 30.04 in - WSW 16.1 mph - N/A   Light Drizzle
11:25 PM 44.6 °F 37.2 °F 44.6 °F 100% 30.04 in 3.1 mi SW 17.3 mph - N/A   Drizzle
11:30 PM 44.6 °F 37.2 °F 44.6 °F 100% 30.04 in - SW 17.3 mph - N/A   Drizzle
11:31 PM 44.6 °F 37.4 °F 44.6 °F 100% 30.04 in - WSW 16.1 mph - N/A   Drizzle
11:55 PM 46.4 °F 40.4 °F 44.6 °F 93% 30.04 in 3.1 mi WSW 13.8 mph - N/A Rain Light Rain